KF4WSW-13 Weather Reports


Display with metric or nautical units.
time (UTC)temp
F
wind
direction
speed
MPH
gust
MPH
rain 1hr
in
rain 24hr
in
rain mn
in
humidity
%
barometer
mb
20260504140904 74 90 11.0 14.0 0.00 0.00 0.00 67 1015.5
20260504140400 74 92 5.0 7.0 0.00 0.00 0.00 67 1015.5
20260504130325 71 102 10.0 11.0 0.00 0.00 0.00 72 1015.1
20260504120248 67 78 4.0 7.0 0.00 0.00 0.00 76 1014.9
20260504110716 64 98 3.0 5.0 0.00 0.00 0.00 82 1014.4
20260504110212 64 54 3.0 3.0 0.00 0.00 0.00 83 1014.5
20260504100130 64 107 4.0 5.0 0.00 0.00 0.00 84 1014.3
20260504081523 66 50 1.0 2.0 0.00 0.00 0.00 81 1014.2
20260504081019 66 77 3.0 5.0 0.00 0.00 0.00 81 1014.3
20260504080516 66 93 5.0 7.0 0.00 0.00 0.00 81 1014.2
20260504050328 70 92 4.0 5.0 0.00 0.00 0.00 77 1015.2
20260504045825 70 93 3.0 3.0 0.00 0.00 0.00 77 1015.2
20260504045320 70 72 3.0 3.0 0.00 0.00 0.00 77 1015.4
20260504044817 70 84 2.0 2.0 0.00 0.00 0.00 76 1015.3
20260504044315 71 104 5.0 6.0 0.00 0.00 0.00 76 1015.1
20260504043812 71 87 6.0 7.0 0.00 0.00 0.00 76 1015.2
20260504043309 71 86 5.0 6.0 0.00 0.00 0.00 75 1015.0
20260504042806 71 100 6.0 7.0 0.00 0.00 0.00 75 1015.4
20260504042304 71 103 5.0 6.0 0.00 0.00 0.00 74 1015.5
20260504041759 71 85 6.0 7.0 0.00 0.00 0.00 74 1015.7
20260504041255 72 85 6.0 7.0 0.00 0.00 0.00 74 1015.6
20260504040751 72 99 5.0 7.0 0.00 0.00 0.00 73 1015.9
20260504040249 72 122 3.0 3.0 0.00 0.00 0.00 71 1015.9
20260504035744 72 219 3.0 3.0 0.00 0.00 0.00 71 1015.8
20260504035242 72 179 1.0 1.0 0.00 0.00 0.00 72 1015.9
20260504034739 71 154 2.0 2.0 0.00 0.00 0.00 70 1015.9
20260504034237 71 287 0.0 1.0 0.00 0.00 0.00 70 1016.0
20260504033734 71 279 0.0 0.0 0.00 0.00 0.00 70 1015.7
20260504033231 71 291 1.0 1.0 0.00 0.00 0.00 70 1015.8
20260504032728 71 340 0.0 0.0 0.00 0.00 0.00 69 1015.9
20260504032225 72 299 0.0 0.0 0.00 0.00 0.00 70 1015.9
20260504031722 71 42 0.0 0.0 0.00 0.00 0.00 70 1015.8
20260504031220 71 308 1.0 2.0 0.00 0.00 0.00 69 1015.9
20260504030715 71 3 1.0 2.0 0.00 0.00 0.00 70 1015.7
20260504030213 71 324 2.0 3.0 0.00 0.00 0.00 69 1015.8
20260504025709 71 64 2.0 5.0 0.00 0.00 0.00 70 1015.6
20260504025206 72 86 6.0 7.0 0.00 0.00 0.00 69 1015.6
20260504024703 72 87 3.0 5.0 0.00 0.00 0.00 69 1015.6
20260504024159 72 76 2.0 2.0 0.00 0.00 0.00 68 1015.4
20260504023656 73 58 2.0 2.0 0.00 0.00 0.00 69 1015.4
20260504023152 73 39 1.0 3.0 0.00 0.00 0.00 69 1015.4
20260504022648 73 29 1.0 2.0 0.00 0.00 0.00 69 1015.1
20260504022144 73 305 1.0 2.0 0.00 0.00 0.00 69 1015.3
20260504021643 73 270 1.0 1.0 0.00 0.00 0.00 69 1015.1
20260504021139 73 3 0.0 0.0 0.00 0.00 0.00 69 1015.2
20260504020636 72 323 0.0 1.0 0.00 0.00 0.00 70 1015.1
20260504020132 72 58 2.0 2.0 0.00 0.00 0.00 69 1015.0
20260504015629 72 278 1.0 1.0 0.00 0.00 0.00 70 1015.0
20260504015125 72 58 2.0 2.0 0.00 0.00 0.00 70 1014.9
20260504014621 72 303 1.0 1.0 0.00 0.00 0.00 71 1014.9
20260504014118 72 315 1.0 1.0 0.00 0.00 0.00 71 1014.8
20260504013616 72 338 1.0 2.0 0.00 0.00 0.00 71 1014.8
20260504013113 72 272 1.0 1.0 0.00 0.00 0.00 71 1014.7
20260504012610 72 276 0.0 1.0 0.00 0.00 0.00 71 1014.4
20260504012108 72 292 0.0 1.0 0.00 0.00 0.00 71 1014.5
20260504011604 72 276 1.0 1.0 0.00 0.00 0.00 70 1014.3
20260504011100 72 273 0.0 0.0 0.00 0.00 0.00 70 1014.3
20260504010556 72 273 0.0 1.0 0.00 0.00 0.00 70 1014.3
20260504010052 72 285 2.0 3.0 0.00 0.00 0.00 69 1014.3
20260504005549 72 272 1.0 2.0 0.00 0.00 0.00 70 1014.2
20260504005047 72 305 1.0 2.0 0.00 0.00 0.00 70 1014.1
20260504004544 73 273 1.0 1.0 0.00 0.00 0.00 69 1014.1
20260504004041 73 356 2.0 3.0 0.00 0.00 0.00 68 1014.1
20260504003537 73 292 3.0 3.0 0.00 0.00 0.00 68 1013.9
20260504003034 73 321 5.0 6.0 0.00 0.00 0.00 68 1013.9
20260504002531 73 276 1.0 2.0 0.00 0.00 0.00 68 1013.7
20260504002029 73 307 2.0 2.0 0.00 0.00 0.00 69 1014.0
20260504001526 73 322 4.0 5.0 0.00 0.00 0.00 68 1013.7
20260504001022 74 355 5.0 6.0 0.00 0.00 0.00 68 1013.5
20260504000520 74 3 3.0 5.0 0.00 0.00 0.00 67 1013.8
20260504000017 74 353 6.0 7.0 0.00 0.00 0.00 68 1013.7
20260503235515 74 290 4.0 5.0 0.00 0.00 0.00 67 1013.5
20260503235011 74 287 1.0 2.0 0.00 0.00 0.00 67 1013.5
20260503234509 74 333 6.0 7.0 0.00 0.00 0.00 67 1013.6
20260503234008 74 309 3.0 5.0 0.00 0.00 0.00 67 1013.6
20260503233503 75 319 5.0 7.0 0.00 0.00 0.00 65 1013.7
20260503232959 75 342 7.0 8.0 0.00 0.00 0.00 66 1013.6
20260503232456 75 333 5.0 7.0 0.00 0.00 0.00 67 1013.6
20260503231954 75 344 7.0 8.0 0.00 0.00 0.00 67 1013.6
20260503231452 75 330 7.0 8.0 0.00 0.00 0.00 67 1013.7
20260503230948 75 317 6.0 8.0 0.00 0.00 0.00 66 1013.8
20260503230445 75 344 4.0 8.0 0.00 0.00 0.00 66 1014.0
20260503225942 75 342 5.0 5.0 0.00 0.00 0.00 66 1013.5
20260503225439 75 319 6.0 7.0 0.00 0.00 0.00 66 1013.6
20260503224934 75 333 7.0 10.0 0.00 0.00 0.00 67 1013.6
20260503224432 75 337 6.0 8.0 0.00 0.00 0.00 66 1013.5
20260503223930 75 326 6.0 8.0 0.00 0.00 0.00 66 1013.5
20260503223427 75 331 7.0 8.0 0.00 0.00 0.00 66 1013.6
20260503222922 75 356 7.0 9.0 0.00 0.00 0.00 66 1013.7
20260503222421 75 359 9.0 10.0 0.00 0.00 0.00 66 1013.8
20260503221919 75 356 7.0 8.0 0.00 0.00 0.00 66 1013.4
20260503221417 75 0 8.0 9.0 0.00 0.00 0.00 65 1013.7
20260503220913 75 319 8.0 10.0 0.00 0.00 0.00 67 1013.5
20260503220410 75 344 8.0 10.0 0.00 0.00 0.00 68 1013.6
20260503215907 75 350 8.0 9.0 0.00 0.00 0.00 65 1013.6
20260503215404 75 348 5.0 8.0 0.00 0.00 0.00 65 1013.6
20260503214902 75 336 7.0 8.0 0.00 0.00 0.00 67 1013.7
20260503214359 75 322 7.0 8.0 0.00 0.00 0.00 67 1013.6
20260503213856 76 327 9.0 10.0 0.00 0.00 0.00 64 1013.7
20260503213354 75 338 7.0 7.0 0.00 0.00 0.00 63 1013.5
20260503212850 75 339 6.0 8.0 0.00 0.00 0.00 66 1013.7
20260503212348 75 348 9.0 10.0 0.00 0.00 0.00 65 1013.8
20260503211845 75 339 12.0 13.0 0.00 0.00 0.00 66 1013.5
20260503211342 75 356 8.0 9.0 0.00 0.00 0.00 64 1013.8
20260503210837 75 329 9.0 10.0 0.00 0.00 0.00 65 1013.9
20260503210335 75 328 9.0 10.0 0.00 0.00 0.00 63 1013.5
20260503205829 75 347 6.0 8.0 0.00 0.00 0.00 66 1013.9
20260503205326 75 315 5.0 6.0 0.00 0.00 0.00 65 1013.8
20260503204823 75 351 6.0 7.0 0.00 0.00 0.00 66 1013.6
20260503204320 75 349 9.0 14.0 0.00 0.00 0.00 64 1013.6
20260503203818 76 355 8.0 9.0 0.00 0.00 0.00 63 1013.7
20260503203315 75 296 6.0 8.0 0.00 0.00 0.00 65 1013.5
20260503202812 75 347 9.0 9.0 0.00 0.00 0.00 64 1013.7
20260503202310 75 347 7.0 8.0 0.00 0.00 0.00 65 1013.7
20260503201808 75 0 9.0 13.0 0.00 0.00 0.00 64 1014.0
20260503201304 76 319 9.0 13.0 0.00 0.00 0.00 64 1013.9
20260503200802 76 315 5.0 8.0 0.00 0.00 0.00 65 1014.3
20260503200257 76 2 8.0 10.0 0.00 0.00 0.00 63 1013.8
20260503195755 75 355 6.0 7.0 0.00 0.00 0.00 64 1014.2
20260503195251 76 336 10.0 11.0 0.00 0.00 0.00 63 1014.4
20260503194749 76 342 10.0 13.0 0.00 0.00 0.00 64 1014.5
20260503194245 76 305 5.0 7.0 0.00 0.00 0.00 62 1014.3
20260503193741 76 336 8.0 9.0 0.00 0.00 0.00 63 1014.3
20260503193237 76 347 8.0 9.0 0.00 0.00 0.00 62 1014.2
20260503192733 76 332 7.0 9.0 0.00 0.00 0.00 62 1014.8
20260503192228 76 349 7.0 8.0 0.00 0.00 0.00 61 1014.7
20260503191725 77 330 9.0 10.0 0.00 0.00 0.00 62 1014.6
20260503191222 76 337 5.0 6.0 0.00 0.00 0.00 60 1014.9
20260503190719 76 5 7.0 9.0 0.00 0.00 0.00 64 1015.2
20260503190216 76 349 7.0 8.0 0.00 0.00 0.00 61 1014.8
20260503185713 76 347 6.0 8.0 0.00 0.00 0.00 63 1015.1
20260503185208 76 342 10.0 11.0 0.00 0.00 0.00 63 1015.1
20260503184703 76 0 10.0 11.0 0.00 0.00 0.00 62 1015.1
20260503184200 76 308 3.0 3.0 0.00 0.00 0.00 64 1015.4
20260503183656 77 286 3.0 3.0 0.00 0.00 0.00 62 1015.4
20260503183154 76 329 5.0 7.0 0.00 0.00 0.00 61 1015.5
20260503182652 75 342 7.0 10.0 0.00 0.00 0.00 66 1015.3
20260503182150 77 283 0.0 1.0 0.00 0.00 0.00 57 1015.7
20260503181646 77 272 1.0 1.0 0.00 0.00 0.00 53 1015.8
20260503181143 76 15 1.0 1.0 0.00 0.00 0.00 60 1015.8
20260503180640 76 78 5.0 6.0 0.00 0.00 0.00 56 1015.7
20260503180138 75 327 1.0 1.0 0.00 0.00 0.00 59 1015.7
20260503175635 75 72 9.0 11.0 0.00 0.00 0.00 61 1015.9
20260503175132 75 80 5.0 6.0 0.00 0.00 0.00 62 1015.8
20260503174628 75 135 4.0 6.0 0.00 0.00 0.00 64 1016.0
20260503174126 76 72 2.0 3.0 0.00 0.00 0.00 59 1015.9
20260503173620 75 58 5.0 8.0 0.00 0.00 0.00 59 1016.0
20260503173117 75 106 6.0 8.0 0.00 0.00 0.00 62 1016.1
20260503172614 75 92 8.0 8.0 0.00 0.00 0.00 59 1016.3
20260503172112 75 20 3.0 5.0 0.00 0.00 0.00 65 1016.3
20260503171608 76 294 2.0 3.0 0.00 0.00 0.00 59 1016.0
20260503171106 75 38 1.0 2.0 0.00 0.00 0.00 64 1016.1
20260503170602 75 266 1.0 1.0 0.00 0.00 0.00 60 1016.1
20260503150954 69 67 2.0 2.0 0.00 0.00 0.00 72 1016.9
20260503150451 69 47 2.0 2.0 0.00 0.00 0.00 71 1016.9